Regional Weather Roundup
Issued by NWS Nashville, TN

Home | Current Version | Previous Version | Text Only | Print | Product List | Glossary On
Versions: 1 2 3 4 5 6 7 8 9 10 11 12 13 14 15 16 17 18 19 20 21 22 23 24 25 26 27
000
ASUS44 KOHX 281910
RWROHX
MIDDLE TENNESSEE HOURLY WEATHER ROUNDUP
NATIONAL WEATHER SERVICE NASHVILLE TN
200 PM CDT WED JUN 28 2017

NOTE: "FAIR" INDICATES FEW OR NO CLOUDS BELOW 12,000 FEET WITH
NO SIGNIFICANT WEATHER AND/OR OBSTRUCTIONS TO VISIBILITY.

* THESE REPORTS ARE NOT UNDER NWS QUALITY CONTROL AND MAY NOT
  REPORT WEATHER SUCH AS PRECIPITATION AND FOG.


TNZ005>011-023>034-057-059-062>066-078-080-282000
...NORTHERN MIDDLE TENNESSEE...

CITY           SKY/WX    TMP DP  RH WIND       PRES   REMARKS
CLARKSVILLE    SUNNY     83  59  44 S7        30.07F
CROSSVILLE     SUNNY     78  48  34 W9        30.18F
GALLATIN       SUNNY     84  54  34 CALM      30.12F
DICKSON        SUNNY     83  60  45 VRB7      30.09F
NASHVILLE      MOSUNNY   87  56  34 S6        30.10F
PORTLAND       SUNNY     82  55  39 SE6       30.09F
SMYRNA         SUNNY     85  60  42 VRB3G17   30.10F
SPARTA         SUNNY     82  52  34 SW7       30.13F
SPRINGFIELD    SUNNY     82  57  42 S7        30.08F
WEST NASHVILLE SUNNY     84  55  37 VRB6      30.06F
$$
TNZ056-058-060-061-075>077-079-093>097-282000
...SOUTHERN MIDDLE TENNESSEE...

CITY           SKY/WX    TMP DP  RH WIND       PRES   REMARKS
COLUMBIA       MOSUNNY   84  61  45 S5G12     30.08F
FAYETTEVILLE   SUNNY     82  59  44 S5        30.11F
MCMINNVILLE    SUNNY     84  55  37 CALM      30.13F
MURFREESBORO   SUNNY     84  51  31 SW3       30.09F
PULASKI        MOSUNNY   82  61  47 CALM      30.10F
SHELBYVILLE    SUNNY     82  57  42 SE7       30.11F
TULLAHOMA      SUNNY     82  48  30 CALM      30.14F
WINCHESTER     SUNNY     84  57  39 SE3       30.13F
$$


...KEY TO REMARKS...
VSB - VISIBILITY IN MILES
WCI - WIND CHILL INDEX
HX  - HEAT INDEX





USA.gov is the U.S. government's official web portal to all federal, state and local government web resources and services.